Location: Blue Moon Observatory
(43.0710°N, 82.8810°W)
Time: 17:52:01
(UTC-05:00)

Tiangong 1 - Visible Passes

Search period start: 17 November 2017 00:00
Search period end: 27 November 2017 00:00
Orbit: 286 x 309 km, 42.8° (Epoch: 17 November)

Date Brightness Start Highest point End Pass type
(mag) Time Alt. Az. Time Alt. Az. Time Alt. Az.
24 Nov 4.0 19:15:29 10° SW 19:15:32 10° SW 19:15:32 10° SW visible
25 Nov 3.2 17:48:47 10° S 17:49:45 11° SSE 17:50:43 10° SE visible
25 Nov 4.2 19:21:35 10° WSW 19:21:43 11° WSW 19:21:43 11° WSW visible
26 Nov 2.5 17:53:49 10° SSW 17:55:49 20° SSE 17:57:22 13° ESE visible
26 Nov 4.4 19:27:44 10° WSW 19:27:44 10° WSW 19:27:44 10° WSW visible
